TimeEDT,TemperatureF,Dew PointF,Humidity,Sea Level PressureIn,VisibilityMPH,Wind Direction,Wind SpeedMPH,Gust SpeedMPH,PrecipitationIn,Events,Conditions,WindDirDegrees,DateUTC
12:52 AM,55.9,48.9,77,29.83,10.0,NNW,3.5,-,N/A,,Overcast,330,2013-09-14 04:52:00
1:52 AM,55.0,48.9,80,29.83,10.0,Variable,4.6,-,N/A,,Overcast,0,2013-09-14 05:52:00
2:52 AM,55.0,48.9,80,29.84,10.0,NW,4.6,-,N/A,,Overcast,320,2013-09-14 06:52:00
3:52 AM,54.0,48.9,83,29.85,10.0,Variable,5.8,-,N/A,,Overcast,0,2013-09-14 07:52:00
4:52 AM,53.1,48.0,83,29.86,10.0,Calm,Calm,-,N/A,,Mostly Cloudy,0,2013-09-14 08:52:00
5:07 AM,51.8,48.2,88,29.85,10.0,Calm,Calm,-,N/A,,Mostly Cloudy,0,2013-09-14 09:07:00
5:52 AM,51.1,46.9,86,29.87,10.0,Calm,Calm,-,N/A,,Partly Cloudy,0,2013-09-14 09:52:00
6:52 AM,50.0,46.9,89,29.89,10.0,Calm,Calm,-,N/A,,Partly Cloudy,0,2013-09-14 10:52:00
7:52 AM,52.0,46.9,83,29.91,10.0,Variable,4.6,-,N/A,,Mostly Cloudy,0,2013-09-14 11:52:00
8:52 AM,54.0,48.0,80,29.94,10.0,NW,6.9,-,N/A,,Overcast,320,2013-09-14 12:52:00
9:52 AM,54.0,46.9,77,29.96,10.0,Variable,6.9,-,N/A,,Overcast,0,2013-09-14 13:52:00
10:52 AM,57.0,46.9,69,29.96,10.0,Variable,6.9,-,N/A,,Mostly Cloudy,0,2013-09-14 14:52:00
11:01 AM,57.2,46.4,67,29.94,10.0,WNW,9.2,-,N/A,,Mostly Cloudy,290,2013-09-14 15:01:00
11:52 AM,57.0,46.9,69,29.96,10.0,NW,8.1,-,N/A,,Mostly Cloudy,310,2013-09-14 15:52:00
12:52 PM,61.0,48.0,62,29.96,10.0,NNW,5.8,-,N/A,,Overcast,330,2013-09-14 16:52:00
1:52 PM,60.1,48.0,64,29.96,10.0,Calm,Calm,-,N/A,,Overcast,0,2013-09-14 17:52:00
2:24 PM,60.8,46.4,59,29.95,10.0,NNW,5.8,-,N/A,,Overcast,330,2013-09-14 18:24:00
2:52 PM,60.1,46.9,62,29.97,10.0,Variable,3.5,-,N/A,,Overcast,0,2013-09-14 18:52:00
3:52 PM,59.0,48.0,67,29.99,10.0,NNW,4.6,-,N/A,,Overcast,330,2013-09-14 19:52:00
4:52 PM,59.0,48.0,67,30.00,10.0,Calm,Calm,-,N/A,,Overcast,0,2013-09-14 20:52:00
5:23 PM,57.2,48.2,72,30.00,10.0,NW,4.6,-,N/A,,Overcast,310,2013-09-14 21:23:00
5:43 PM,57.2,48.2,72,30.00,10.0,WNW,5.8,-,N/A,,Overcast,290,2013-09-14 21:43:00
5:52 PM,57.9,48.0,70,30.03,10.0,Variable,5.8,-,N/A,,Overcast,0,2013-09-14 21:52:00
6:52 PM,57.0,48.0,72,30.05,10.0,Calm,Calm,-,N/A,,Overcast,0,2013-09-14 22:52:00
7:52 PM,52.0,48.9,89,30.06,10.0,Calm,Calm,-,N/A,,Clear,0,2013-09-14 23:52:00
8:52 PM,52.0,48.0,86,30.08,10.0,Calm,Calm,-,N/A,,Clear,0,2013-09-15 00:52:00
9:52 PM,50.0,46.9,89,30.08,10.0,Calm,Calm,-,N/A,,Clear,0,2013-09-15 01:52:00
10:52 PM,50.0,48.0,93,30.09,10.0,Calm,Calm,-,N/A,,Clear,0,2013-09-15 02:52:00
11:52 PM,48.9,46.9,93,30.09,10.0,Calm,Calm,-,N/A,,Clear,0,2013-09-15 03:52:00